Home > Weather > Stockholm > Past weeks

Flag for Sweden Weather for the Past 2 Weeks in Stockholm, Sweden

Now
28 °F

Passing clouds.


Feels Like: 22 °F
Forecast: 23 / 29 °F
Wind: 6 mph from North

Location: Stockholm Bromma Airport

Current Time: Feb 14, 2016 at 6:53:23 PM

Latest Report: Feb 14, 2016 at 6:20 PM


Visibility: N/A

Pressure: 29.62 "Hg

Humidity: 80%

Dew point: 23 °F

Location of StockholmLocation

Historic Weather in Stockholm — Graph

°F

Stockholm Temperature Yesterday

Maximum temperature yesterday: 34 °F (at 12:20 PM)
Minimum temperature yesterday: 28 °F (at 12:20 AM)
Average temperature yesterday: 31 °F

High & Low Weather Summary for the Past Weeks

 TemperatureHumidityPressure
High45 °F (Feb 7, 11:20 AM)100% (Feb 1, 8:20 PM)29.92 "Hg (Feb 1, 8:20 PM)
Low21 °F (Feb 5, 10:50 PM)51% (Feb 13, 2:20 PM)28.85 "Hg (Feb 2, 3:50 AM)
Average34 °F84%29.32 "Hg
* Reported Jan 30 5:20 PM — Feb 14 5:20 PM, Stockholm, Weather by CustomWeather, © 2016

Note: Actual official high and low records may vary slightly from our data, if they occured in-between our weather recording intervals... More about our weather records

Advertising

Stockholm Weather History for the Previous 24 Hours

 ConditionsComfort  
Time TempWeatherWind HumidityBarometerVisibility
5:20 PM
Sun, Feb 14
28 °FPassing clouds.6 mph80%29.59 "HgN/A
4:50 PM27 °FPassing clouds.6 mph86%29.59 "HgN/A
4:20 PM27 °FPartly sunny.5 mph93%29.56 "HgN/A
3:50 PM27 °FPartly sunny.6 mph93%29.56 "HgN/A
3:20 PM27 °FPartly sunny.8 mph93%29.56 "HgN/A
2:50 PM27 °FIce fog.6 mph93%29.56 "Hg6 mi
2:20 PM27 °FLight snow. Ice fog.6 mph93%29.56 "Hg5 mi
1:50 PM27 °FLight snow. Ice fog.6 mph93%29.56 "Hg4 mi
1:20 PM27 °FLight snow. Ice fog.5 mph93%29.53 "Hg4 mi
12:50 PM25 °FIce fog.5 mph100%29.53 "Hg2 mi
12:20 PM25 °FLight snow. Ice fog.3 mph100%29.53 "Hg2 mi
11:50 AM25 °FIce fog.3 mph100%29.53 "Hg2 mi
11:20 AM25 °FIce fog.3 mph100%29.53 "Hg2 mi
10:50 AM25 °FLight snow. Ice fog.3 mph100%29.53 "Hg2 mi
10:20 AM25 °FLow clouds.2 mph93%29.53 "Hg1 mi
9:50 AM23 °FIce fog.3 mph100%29.50 "Hg1 mi
9:20 AM23 °FSnow flurries. Low clouds.3 mph100%29.50 "Hg6 mi
8:20 AM23 °FIce fog.5 mph100%29.50 "Hg0 mi
7:50 AM25 °FIce fog.5 mph100%29.50 "Hg1 mi
7:20 AM21 °FLow clouds.2 mph93%29.47 "HgN/A
6:50 AM21 °FLight fog.No wind100%29.47 "HgN/A
6:20 AM21 °FIce fog.No wind100%29.47 "Hg6 mi
5:50 AM23 °FIce fog.No wind100%29.47 "Hg4 mi
5:20 AM23 °FIce fog.No wind100%29.47 "Hg0 mi
4:50 AM27 °FChilly.3 mph93%29.47 "HgN/A
4:20 AM27 °FChilly.3 mph100%29.47 "HgN/A
3:50 AM27 °FPassing clouds.1 mph100%29.47 "HgN/A
3:20 AM28 °FMostly cloudy.3 mph93%29.47 "HgN/A
2:20 AM30 °FLight snow. Passing clouds.3 mph100%29.47 "Hg2 mi
1:50 AM32 °FLight snow. Mostly cloudy.3 mph93%29.47 "HgN/A
1:20 AM32 °FMostly cloudy.3 mph93%29.47 "HgN/A
12:50 AM32 °FMostly cloudy.3 mph100%29.47 "HgN/A
12:20 AM32 °FLow clouds.6 mph93%29.47 "HgN/A
11:50 PM
Sat, Feb 13
32 °FMostly cloudy.5 mph93%29.47 "HgN/A
11:20 PM32 °FLow clouds.5 mph87%29.47 "HgN/A
10:50 PM32 °FLow clouds.3 mph87%29.47 "HgN/A
10:20 PM32 °FLow clouds.5 mph87%29.50 "HgN/A
9:50 PM32 °FSnow flurries. Low clouds.2 mph87%29.50 "HgN/A
9:20 PM30 °FLow clouds.2 mph86%29.50 "HgN/A
8:50 PM32 °FLow clouds.2 mph80%29.50 "HgN/A
8:20 PM32 °FOvercast.3 mph80%29.50 "HgN/A
7:50 PM30 °FLight snow. Mostly cloudy.3 mph75%29.50 "HgN/A
7:20 PM30 °FPartly cloudy.2 mph75%29.50 "HgN/A
6:50 PM32 °FMostly cloudy.2 mph64%29.53 "HgN/A
6:20 PM32 °FOvercast.6 mph64%29.53 "HgN/A
Weather by CustomWeather, © 2016

See weather overviewHow to use our weather pages